Volver al catálogo

FENGYUN 1C DEB

ActivoSSO
NORAD 31433·DEBRIS·🇨🇳 China

Lanzado May 10, 1999 desde Taiyuan Satellite Launch Center

Loading…

Próximos Pases (próximas 24 horas)

TLE

ActualizadoSource: Space-Track

Época: Sep 14, 2026, 04:02 UTC

1 31433U 99025BTV 26257.16859398  .00002983  00000-0  11606-2 0  9998
2 31433  98.3953 154.9527 0094944 301.5150 216.9526 14.28063653994800

Sigue FENGYUN 1C DEB en tiempo real con AllMySat

Download on the App Store